This demonstration page uses our WeatherBlox Daily Observations layout. Learn more.

Left ArrowRight Arrow

36.19886, -115.1175

Hourly Observations for January 5, 2022

Temp ( °F °C ) Dew Point ( °F °C ) Humidity (%) Winds ( mph kmh ) Pressure ( in mb ) Visibility ( mi km ) Precip ( " mm )
12:53 am 00:53 Clear 40 4.4 20 -6.7 45 45 WNW 7 11 30.24 1024 10 16 0.00 0.00
1:53 am 01:53 Clear 40 4.4 19 -7.2 43 43 Calm 30.24 1024 10 16 0.00 0.00
2:53 am 02:53 Clear 39 3.9 19 -7.2 45 45 NW 10 17 30.24 1024 10 16 0.00 0.00
3:53 am 03:53 Clear 39 3.9 19 -7.2 45 45 NW 7 11 30.23 1024 10 16 0.00 0.00
4:53 am 04:53 Clear 38 3.3 19 -7.2 46 46 NNW 5 7 30.23 1024 10 16 0.00 0.00
5:53 am 05:53 Clear 39 3.9 19 -7.2 45 45 NW 8 13 30.22 1024 10 16 0.00 0.00
6:53 am 06:53 Sunny 36 2.2 19 -7.2 50 50 Calm 30.25 1024 10 16 0.00 0.00
7:53 am 07:53 Sunny 40 4.4 20 -6.7 45 45 Calm 30.27 1025 10 16 0.00 0.00
8:53 am 08:53 Sunny 46 7.8 20 -6.7 35 35 NNW 5 7 30.29 1026 10 16 0.00 0.00
9:53 am 09:53 Sunny 49 9.4 19 -7.2 31 31 Calm 30.28 1025 10 16 0.00 0.00
10:53 am 10:53 Sunny 51 10.6 19 -7.2 28 28 E 5 7 30.25 1024 10 16 0.00 0.00
11:53 am 11:53 Sunny 53 11.7 17 -8.3 24 24 Calm 30.22 1023 10 16 0.00 0.00
12:53 pm 12:53 Sunny 56 13.3 18 -7.8 22 22 Calm 30.17 1022 10 16 0.00 0.00
1:53 pm 13:53 Sunny 57 13.9 18 -7.8 22 22 E 5 7 30.14 1021 10 16 0.00 0.00
2:53 pm 14:53 Sunny 58 14.4 19 -7.2 22 22 E 5 7 30.14 1021 10 16 0.00 0.00
3:53 pm 15:53 Sunny 58 14.4 19 -7.2 22 22 Calm 30.14 1021 10 16 0.00 0.00
4:53 pm 16:53 Clear 56 13.3 19 -7.2 24 24 ENE 3 6 30.15 1021 10 16 0.00 0.00
5:53 pm 17:53 Clear 54 12.2 20 -6.7 26 26 NE 3 6 30.16 1022 10 16 0.00 0.00
6:53 pm 18:53 Clear 50 10 20 -6.7 30 30 Calm 30.18 1022 10 16 0.00 0.00
7:53 pm 19:53 Clear 48 8.9 22 -5.6 36 36 W 6 9 30.18 1022 10 16 0.00 0.00
8:53 pm 20:53 Clear 47 8.3 23 -5 39 39 Calm 30.17 1022 10 16 0.00 0.00
9:53 pm 21:53 Clear 44 6.7 23 -5 43 43 Calm 30.17 1022 10 16 0.00 0.00
10:53 pm 22:53 Clear 43 6.1 22 -5.6 43 43 WNW 3 6 30.16 1021 10 16 0.00 0.00
11:53 pm 23:53 Clear 43 6.1 23 -5 45 45 WNW 6 9 30.16 1021 10 16 0.00 0.00

Powered by AerisWeather